TimeAKST,TemperatureF,Dew PointF,Humidity,Sea Level PressureIn,VisibilityMPH,Wind Direction,Wind SpeedMPH,Gust SpeedMPH,PrecipitationIn,Events,Conditions,WindDirDegrees,DateUTC
12:07 AM,39.9,35.1,83,29.61,7.0,West,21.9,26.5,0.01,Rain,Light Rain,280,2014-01-13 09:07:00
12:25 AM,39.9,35.1,83,29.63,10.0,West,13.8,-,0.01,,Overcast,270,2014-01-13 09:25:00
12:53 AM,41.0,34.0,76,29.66,10.0,West,20.7,-,0.02,,Mostly Cloudy,260,2014-01-13 09:53:00
1:53 AM,42.1,34.0,73,29.71,9.0,WSW,23.0,29.9,N/A,,Overcast,250,2014-01-13 10:53:00
2:53 AM,41.0,33.1,73,29.76,10.0,West,18.4,-,0.01,,Overcast,260,2014-01-13 11:53:00
3:47 AM,37.4,35.6,93,29.81,3.0,WNW,21.9,39.1,0.02,Rain,Heavy Rain,290,2014-01-13 12:47:00
3:53 AM,39.0,35.1,86,29.81,5.0,WNW,16.1,-,0.02,Rain,Heavy Rain,290,2014-01-13 12:53:00
4:04 AM,39.0,36.0,89,29.82,10.0,West,15.0,-,0.00,Rain,Light Rain,280,2014-01-13 13:04:00
4:23 AM,39.9,36.0,86,29.83,10.0,West,12.7,-,0.00,,Overcast,280,2014-01-13 13:23:00
4:34 AM,39.9,36.0,86,29.83,10.0,West,13.8,-,0.00,,Overcast,270,2014-01-13 13:34:00
4:53 AM,41.0,36.0,82,29.84,10.0,West,15.0,-,0.00,,Overcast,260,2014-01-13 13:53:00
5:53 AM,42.1,36.0,79,29.86,9.0,West,12.7,-,N/A,,Mostly Cloudy,260,2014-01-13 14:53:00
6:33 AM,42.1,37.0,82,29.88,8.0,South,10.4,-,N/A,,Overcast,190,2014-01-13 15:33:00
6:46 AM,41.0,37.9,89,29.88,7.0,South,10.4,-,N/A,,Overcast,190,2014-01-13 15:46:00
6:53 AM,41.0,37.9,89,29.89,7.0,South,8.1,-,N/A,,Overcast,190,2014-01-13 15:53:00
7:07 AM,41.0,37.9,89,29.89,8.0,South,13.8,-,N/A,,Overcast,190,2014-01-13 16:07:00
7:29 AM,41.0,37.9,89,29.90,7.0,South,9.2,-,N/A,,Mostly Cloudy,180,2014-01-13 16:29:00
7:38 AM,41.0,37.9,89,29.90,6.0,South,9.2,-,0.00,Rain,Light Rain,180,2014-01-13 16:38:00
7:53 AM,41.0,37.9,89,29.91,6.0,South,9.2,-,0.00,Rain,Light Rain,190,2014-01-13 16:53:00
8:53 AM,43.0,37.0,80,29.95,7.0,SW,10.4,-,0.01,,Overcast,230,2014-01-13 17:53:00
9:00 AM,43.0,37.9,82,29.95,7.0,SW,11.5,-,N/A,,Overcast,220,2014-01-13 18:00:00
9:53 AM,42.1,39.0,89,29.98,10.0,South,9.2,-,N/A,,Overcast,190,2014-01-13 18:53:00
10:53 AM,43.0,37.9,82,30.00,10.0,South,5.8,-,N/A,,Overcast,170,2014-01-13 19:53:00
11:53 AM,42.1,37.9,85,30.01,9.0,ESE,6.9,-,N/A,,Overcast,110,2014-01-13 20:53:00
12:11 PM,42.1,39.0,89,30.01,7.0,South,10.4,-,0.02,Rain,Light Rain,170,2014-01-13 21:11:00
12:53 PM,42.1,39.0,89,30.03,8.0,South,13.8,-,0.02,,Overcast,170,2014-01-13 21:53:00
1:10 PM,42.1,39.0,89,30.02,7.0,South,10.4,-,N/A,,Overcast,170,2014-01-13 22:10:00
1:53 PM,42.1,37.0,82,30.01,10.0,ESE,6.9,-,N/A,,Overcast,110,2014-01-13 22:53:00
2:44 PM,41.0,36.0,82,29.99,6.0,ESE,12.7,-,0.01,Rain,Light Rain,120,2014-01-13 23:44:00
2:53 PM,41.0,36.0,82,29.99,6.0,SE,11.5,-,0.01,Rain,Light Rain,140,2014-01-13 23:53:00
3:53 PM,39.0,36.0,89,29.96,6.0,ESE,12.7,-,0.07,Rain,Rain,120,2014-01-14 00:53:00
4:53 PM,39.0,35.1,86,29.88,7.0,ESE,16.1,-,0.07,Rain,Light Rain,120,2014-01-14 01:53:00
5:53 PM,39.9,36.0,86,29.81,5.0,SE,19.6,26.5,0.04,Rain,Light Rain,130,2014-01-14 02:53:00
6:53 PM,39.9,36.0,86,29.76,5.0,East,28.8,36.8,0.11,Rain,Rain,100,2014-01-14 03:53:00
7:53 PM,43.0,37.0,80,29.70,6.0,ESE,27.6,41.4,0.12,Rain,Rain,110,2014-01-14 04:53:00
8:45 PM,45.0,39.0,80,29.69,4.0,ESE,23.0,32.2,0.10,Rain,Rain,120,2014-01-14 05:45:00
8:53 PM,45.0,39.0,80,29.69,4.0,ESE,19.6,33.4,0.12,Rain,Rain,110,2014-01-14 05:53:00
9:53 PM,46.9,42.1,83,29.68,4.0,SE,13.8,25.3,0.22,Rain,Heavy Rain,130,2014-01-14 06:53:00
10:27 PM,48.0,45.0,89,29.67,1.8,SSE,29.9,44.9,0.17,Rain,Heavy Rain,160,2014-01-14 07:27:00
10:38 PM,48.0,45.0,89,29.67,2.5,SSE,25.3,41.4,0.24,Rain,Heavy Rain,160,2014-01-14 07:38:00
10:53 PM,48.0,45.0,89,29.67,3.0,South,19.6,38.0,0.30,Rain,Rain,170,2014-01-14 07:53:00
11:01 PM,48.0,45.0,89,29.67,2.0,South,21.9,39.1,0.04,Rain,Rain,170,2014-01-14 08:01:00
11:03 PM,48.0,46.0,93,29.67,1.8,South,19.6,39.1,0.05,Rain,Rain,170,2014-01-14 08:03:00
11:11 PM,48.0,45.0,89,29.67,2.0,South,25.3,38.0,0.09,Rain,Heavy Rain,170,2014-01-14 08:11:00
11:18 PM,48.0,45.0,89,29.66,2.0,South,24.2,34.5,0.13,Rain,Heavy Rain,170,2014-01-14 08:18:00
11:34 PM,48.0,45.0,89,29.66,2.0,South,25.3,38.0,0.23,Rain,Heavy Rain,170,2014-01-14 08:34:00
11:53 PM,48.0,45.0,89,29.65,2.5,SSE,31.1,41.4,0.34,Rain,Heavy Rain,160,2014-01-14 08:53:00